,,Stat6,,Stat2,,Stat8,,Stat9,,Stat10,,Wind1,,Wind1,
time,status,PA1M_AVG,status,PR1M_SUM,status,RH1M_AVG,status,SR1M_AVG,status,TA1M_AVG,status,W1dAve1m,status,W1sAve1m,
2007-06-18, 00:00:00,VALID,915.457,VALID,0,VALID,100,VALID,-0.118866,VALID,19.2917,VALID,256,VALID,0.50816,
2007-06-18, 00:01:00,VALID,915.462,VALID,0,VALID,100,VALID,-0.0849042,VALID,19.2715,VALID,206,VALID,0.319247,
2007-06-18, 00:02:00,VALID,915.408,VALID,0,VALID,100,VALID,-0.0849042,VALID,19.2755,VALID,349,VALID,0.637957,
2007-06-18, 00:03:00,VALID,915.433,VALID,0,VALID,100,VALID,-0.0849042,VALID,19.2788,VALID,312,VALID,0.743359,
2007-06-18, 00:04:00,VALID,915.418,VALID,0,VALID,100,VALID,-0.101885,VALID,19.2588,VALID,84,VALID,0.470022,
2007-06-18, 00:05:00,VALID,915.416,VALID,0,VALID,100,VALID,-0.0849042,VALID,19.2688,VALID,32,VALID,0.747093,
2007-06-18, 00:06:00,VALID,915.427,VALID,0,VALID,100,VALID,-0.101885,VALID,19.291,VALID,41,VALID,0.856571,
2007-06-18, 00:07:00,VALID,915.358,VALID,0,VALID,100,VALID,-0.101885,VALID,19.298,VALID,69,VALID,0.853125,
2007-06-18, 00:08:00,VALID,915.348,VALID,0,VALID,100,VALID,-0.0849042,VALID,19.2815,VALID,117,VALID,1.69066,
2007-06-18, 00:09:00,VALID,915.403,VALID,0,VALID,100,VALID,-0.0849042,VALID,19.2715,VALID,257,VALID,0.908346,
2007-06-18, 00:10:00,VALID,915.413,VALID,0,VALID,100,VALID,-0.0849042,VALID,19.2783,VALID,244,VALID,0.871838,
2007-06-18, 00:11:00,VALID,915.398,VALID,0,VALID,100,VALID,-0.101885,VALID,19.2586,VALID,255,VALID,0.75601,
2007-06-18, 00:12:00,VALID,915.35,VALID,0,VALID,100,VALID,-0.101885,VALID,19.2818,VALID,359,VALID,0.384375,
2007-06-18, 00:13:00,VALID,915.376,VALID,0,VALID,100,VALID,-0.101885,VALID,19.2848,VALID,297,VALID,0.452009,
2007-06-18, 00:14:00,VALID,915.371,VALID,0,VALID,100,VALID,-0.0339617,VALID,19.2972,VALID,241,VALID,0.276972,
2007-06-18, 00:15:00,VALID,915.363,VALID,0,VALID,100,VALID,-0.0169808,VALID,19.2773,VALID,251,VALID,1.26543,
2007-06-18, 00:16:00,VALID,915.348,VALID,0,VALID,100,VALID,0,VALID,19.2548,VALID,285,VALID,1.03144,
2007-06-18, 00:17:00,VALID,915.344,VALID,0,VALID,100,VALID,0,VALID,19.2281,VALID,326,VALID,0.715909,
2007-06-18, 00:18:00,VALID,915.309,VALID,0,VALID,100,VALID,0,VALID,19.2346,VALID,21,VALID,0.247456,
2007-06-18, 00:19:00,VALID,915.319,VALID,0,VALID,100,VALID,0,VALID,19.2349,VALID,297,VALID,0.33162,
2007-06-18, 00:20:00,VALID,915.285,VALID,0,VALID,100,VALID,-0.0169808,VALID,19.2319,VALID,242,VALID,0.40718,
2007-06-18, 00:21:00,VALID,915.286,VALID,0,VALID,100,VALID,0,VALID,19.2289,VALID,245,VALID,0.616616,
2007-06-18, 00:22:00,VALID,915.273,VALID,0,VALID,100,VALID,0.0169808,VALID,19.2092,VALID,279,VALID,0.617788,
2007-06-18, 00:23:00,VALID,915.2,VALID,0,VALID,100,VALID,-0.0169808,VALID,19.2122,VALID,332,VALID,1.35684,
2007-06-18, 00:24:00,VALID,915.222,VALID,0,VALID,100,VALID,0.0169808,VALID,19.2087,VALID,254,VALID,1.4395,
2007-06-18, 00:25:00,VALID,915.23,VALID,0,VALID,100,VALID,0.0169808,VALID,19.1962,VALID,201,VALID,0.402699,
2007-06-18, 00:26:00,VALID,915.172,VALID,0,VALID,100,VALID,-0.0169808,VALID,19.2062,VALID,101,VALID,1.18917,
2007-06-18, 00:27:00,VALID,915.196,VALID,0,VALID,100,VALID,0.0169808,VALID,19.2187,VALID,16,VALID,1.367,
2007-06-18, 00:28:00,VALID,915.206,VALID,0,VALID,100,VALID,0,VALID,19.2286,VALID,192,VALID,0.763263,
2007-06-18, 00:29:00,VALID,915.194,VALID,0,VALID,100,VALID,0,VALID,19.2157,VALID,171,VALID,0.250545,
2007-06-18, 00:30:00,VALID,915.186,VALID,0,VALID,100,VALID,-0.0169808,VALID,19.2159,VALID,214,VALID,0.387091,
2007-06-18, 00:31:00,VALID,915.186,VALID,0,VALID,100,VALID,0,VALID,19.2094,VALID,179,VALID,0.491406,
2007-06-18, 00:32:00,VALID,915.176,VALID,0,VALID,100,VALID,-0.0169808,VALID,19.2189,VALID,86,VALID,0.745924,
2007-06-18, 00:33:00,VALID,915.179,VALID,0,VALID,100,VALID,0.0169808,VALID,19.2187,VALID,315,VALID,0.34933,
2007-06-18, 00:34:00,VALID,915.1,VALID,0,VALID,100,VALID,0.0169808,VALID,19.2189,VALID,121,VALID,0.390811,
2007-06-18, 00:35:00,VALID,915.105,VALID,0,VALID,100,VALID,0,VALID,19.2057,VALID,15,VALID,0.275781,
2007-06-18, 00:36:00,VALID,915.093,VALID,0,VALID,100,VALID,-0.0339617,VALID,19.2189,VALID,346,VALID,0.858259,
2007-06-18, 00:37:00,VALID,915.098,VALID,0,VALID,100,VALID,0,VALID,19.2092,VALID,346,VALID,0.627539,
2007-06-18, 00:38:00,VALID,915.064,VALID,0,VALID,100,VALID,-0.0169808,VALID,19.1957,VALID,89,VALID,0.651643,
2007-06-18, 00:39:00,VALID,915.062,VALID,0,VALID,100,VALID,0,VALID,19.1728,VALID,190,VALID,0.517442,
2007-06-18, 00:40:00,VALID,915.024,VALID,0,VALID,100,VALID,-0.0169808,VALID,19.1725,VALID,258,VALID,0.0967262,
2007-06-18, 00:41:00,VALID,914.998,VALID,0,VALID,100,VALID,0.0509425,VALID,19.1698,VALID,214,VALID,0.428234,
2007-06-18, 00:42:00,VALID,914.976,VALID,0,VALID,100,VALID,-0.0169808,VALID,19.1568,VALID,105,VALID,0.921669,
2007-06-18, 00:43:00,VALID,914.97,VALID,0,VALID,100,VALID,0.0339617,VALID,19.1568,VALID,141,VALID,1.79403,
2007-06-18, 00:44:00,VALID,914.974,VALID,0,VALID,100,VALID,-0.0169808,VALID,19.1835,VALID,325,VALID,1.05971,
2007-06-18, 00:45:00,VALID,914.999,VALID,0,VALID,100,VALID,-0.0849042,VALID,19.1939,VALID,203,VALID,0.891352,
2007-06-18, 00:46:00,VALID,914.99,VALID,0,VALID,100,VALID,-0.118866,VALID,19.1839,VALID,207,VALID,1.35565,
2007-06-18, 00:47:00,VALID,914.969,VALID,0,VALID,100,VALID,-0.0849042,VALID,19.1874,VALID,277,VALID,0.967988,
2007-06-18, 00:48:00,VALID,914.943,VALID,0,VALID,100,VALID,-0.0849042,VALID,19.1812,VALID,265,VALID,1.96165,
2007-06-18, 00:49:00,VALID,914.942,VALID,0,VALID,100,VALID,-0.101885,VALID,19.1844,VALID,6,VALID,2.0875,
2007-06-18, 00:50:00,VALID,914.972,VALID,0,VALID,100,VALID,-0.0849042,VALID,19.1844,VALID,237,VALID,1.00799,
2007-06-18, 00:51:00,VALID,914.96,VALID,0,VALID,100,VALID,-0.101885,VALID,19.1714,VALID,181,VALID,0.625,
2007-06-18, 00:52:00,VALID,914.964,VALID,0,VALID,100,VALID,-0.118866,VALID,19.1787,VALID,228,VALID,0.628452,
2007-06-18, 00:53:00,VALID,914.951,VALID,0,VALID,100,VALID,-0.101885,VALID,19.1782,VALID,302,VALID,0.836979,
2007-06-18, 00:54:00,VALID,914.948,VALID,0,VALID,100,VALID,-0.101885,VALID,19.162,VALID,285,VALID,0.503018,
2007-06-18, 00:55:00,VALID,914.966,VALID,0,VALID,100,VALID,-0.101885,VALID,19.1654,VALID,257,VALID,0.396434,
2007-06-18, 00:56:00,VALID,914.934,VALID,0,VALID,100,VALID,-0.118866,VALID,19.1654,VALID,329,VALID,1.27003,
2007-06-18, 00:57:00,VALID,914.937,VALID,0,VALID,100,VALID,-0.101885,VALID,19.1525,VALID,213,VALID,1.34048,
2007-06-18, 00:58:00,VALID,914.906,VALID,0,VALID,100,VALID,-0.118866,VALID,19.1295,VALID,263,VALID,1.62573,
2007-06-18, 00:59:00,VALID,914.905,VALID,0,VALID,100,VALID,-0.0679233,VALID,19.1123,VALID,348,VALID,0.81612,
2007-06-18, 01:00:00,VALID,914.937,VALID,0,VALID,100,VALID,-0.0169808,VALID,19.1316,VALID,9,VALID,0.90483,
2007-06-18, 01:01:00,VALID,914.865,VALID,0,VALID,100,VALID,-0.0509425,VALID,19.1283,VALID,151,VALID,1.94822,
2007-06-18, 01:02:00,VALID,914.904,VALID,0.2,VALID,100,VALID,-0.0339617,VALID,19.0991,VALID,177,VALID,1.43217,
2007-06-18, 01:03:00,VALID,914.848,VALID,0,VALID,100,VALID,0,VALID,19.0792,VALID,230,VALID,2.43617,
2007-06-18, 01:04:00,VALID,914.883,VALID,0,VALID,100,VALID,-0.0169808,VALID,19.0759,VALID,326,VALID,1.19902,
2007-06-18, 01:05:00,VALID,914.812,VALID,0,VALID,100,VALID,0,VALID,19.0664,VALID,258,VALID,1.81269,
2007-06-18, 01:06:00,VALID,914.87,VALID,0,VALID,100,VALID,-0.0339617,VALID,19.0632,VALID,121,VALID,1.85231,
2007-06-18, 01:07:00,VALID,914.883,VALID,0,VALID,100,VALID,0,VALID,19.0764,VALID,38,VALID,1.8084,
2007-06-18, 01:08:00,VALID,914.863,VALID,0,VALID,100,VALID,-0.0339617,VALID,19.0664,VALID,100,VALID,1.28255,
2007-06-18, 01:09:00,VALID,914.854,VALID,0,VALID,100,VALID,-0.0339617,VALID,19.0634,VALID,85,VALID,1.99521,
2007-06-18, 01:10:00,VALID,914.883,VALID,0,VALID,100,VALID,-0.0169808,VALID,19.0567,VALID,233,VALID,1.11682,
2007-06-18, 01:11:00,VALID,914.829,VALID,0,VALID,100,VALID,-0.0169808,VALID,19.0375,VALID,272,VALID,1.99319,
2007-06-18, 01:12:00,VALID,914.844,VALID,0,VALID,100,VALID,-0.0169808,VALID,19.047,VALID,54,VALID,1.42987,
2007-06-18, 01:13:00,VALID,914.855,VALID,0.2,VALID,100,VALID,0,VALID,19.05,VALID,83,VALID,1.26823,
2007-06-18, 01:14:00,VALID,914.842,VALID,0,VALID,100,VALID,0,VALID,19.0602,VALID,4,VALID,1.21857,
2007-06-18, 01:15:00,VALID,914.806,VALID,0,VALID,100,VALID,0,VALID,19.0537,VALID,263,VALID,1.33633,
2007-06-18, 01:16:00,VALID,914.802,VALID,0,VALID,100,VALID,-0.0169808,VALID,19.031,VALID,93,VALID,1.16654,
2007-06-18, 01:17:00,VALID,914.748,VALID,0,VALID,100,VALID,-0.0339617,VALID,19.0243,VALID,159,VALID,0.999428,
2007-06-18, 01:18:00,VALID,914.68,VALID,0,VALID,100,VALID,-0.0169808,VALID,19.0145,VALID,41,VALID,1.39672,
2007-06-18, 01:19:00,VALID,914.655,VALID,0,VALID,100,VALID,-0.0339617,VALID,19.0115,VALID,340,VALID,1.81377,
2007-06-18, 01:20:00,VALID,914.667,VALID,0.2,VALID,100,VALID,0,VALID,19.011,VALID,91,VALID,1.12351,
2007-06-18, 01:21:00,VALID,914.6,VALID,0,VALID,100,VALID,-0.0339617,VALID,19.0143,VALID,121,VALID,1.30263,
2007-06-18, 01:22:00,VALID,914.576,VALID,0,VALID,100,VALID,-0.0509425,VALID,19.0213,VALID,64,VALID,1.76154,
2007-06-18, 01:23:00,VALID,914.593,VALID,0,VALID,100,VALID,-0.0849042,VALID,19.0213,VALID,123,VALID,1.05489,
2007-06-18, 01:24:00,VALID,914.559,VALID,0,VALID,100,VALID,0,VALID,19.0345,VALID,24,VALID,1.96168,
2007-06-18, 01:25:00,VALID,914.591,VALID,0,VALID,100,VALID,-0.0169808,VALID,19.0208,VALID,89,VALID,1.45998,
2007-06-18, 01:26:00,VALID,914.548,VALID,0,VALID,100,VALID,0,VALID,19.0143,VALID,12,VALID,1.62024,
2007-06-18, 01:27:00,VALID,914.519,VALID,0,VALID,100,VALID,0,VALID,19.011,VALID,32,VALID,1.98456,
2007-06-18, 01:28:00,VALID,914.52,VALID,0,VALID,100,VALID,-0.0339617,VALID,19.0275,VALID,21,VALID,2.008,
2007-06-18, 01:29:00,VALID,914.554,VALID,0,VALID,100,VALID,-0.0509425,VALID,19.0407,VALID,35,VALID,1.19331,
2007-06-18, 01:30:00,VALID,914.539,VALID,0,VALID,100,VALID,-0.0169808,VALID,19.0368,VALID,46,VALID,1.45785,
2007-06-18, 01:31:00,VALID,914.508,VALID,0,VALID,100,VALID,0,VALID,19.0592,VALID,94,VALID,1.29181,
2007-06-18, 01:32:00,VALID,914.515,VALID,0,VALID,100,VALID,0,VALID,19.0632,VALID,159,VALID,1.11143,
2007-06-18, 01:33:00,VALID,914.511,VALID,0,VALID,100,VALID,0,VALID,19.0465,VALID,195,VALID,0.90253,
2007-06-18, 01:34:00,VALID,914.489,VALID,0,VALID,100,VALID,0,VALID,19.0629,VALID,102,VALID,1.0992,
2007-06-18, 01:35:00,VALID,914.459,VALID,0,VALID,100,VALID,0,VALID,19.0759,VALID,357,VALID,1.15739,
2007-06-18, 01:36:00,VALID,914.449,VALID,0,VALID,100,VALID,-0.0169808,VALID,19.0894,VALID,25,VALID,1.97616,
2007-06-18, 01:37:00,VALID,914.461,VALID,0,VALID,100,VALID,-0.0339617,VALID,19.1088,VALID,28,VALID,1.27474,
2007-06-18, 01:38:00,VALID,914.454,VALID,0,VALID,100,VALID,-0.0169808,VALID,19.1024,VALID,275,VALID,0.688058,
2007-06-18, 01:39:00,VALID,914.459,VALID,0,VALID,100,VALID,0,VALID,19.0954,VALID,182,VALID,0.558984,
2007-06-18, 01:40:00,VALID,914.442,VALID,0,VALID,100,VALID,-0.0169808,VALID,19.0954,VALID,222,VALID,0.581676,
2007-06-18, 01:41:00,VALID,914.445,VALID,0,VALID,100,VALID,0,VALID,19.1021,VALID,101,VALID,1.04031,
2007-06-18, 01:42:00,VALID,914.446,VALID,0,VALID,100,VALID,-0.0169808,VALID,19.1179,VALID,13,VALID,0.940662,
2007-06-18, 01:43:00,VALID,914.446,VALID,0,VALID,100,VALID,0.0169808,VALID,19.1218,VALID,318,VALID,1.00581,
2007-06-18, 01:44:00,VALID,914.462,VALID,0,VALID,100,VALID,-0.0169808,VALID,19.1281,VALID,35,VALID,1.83477,
2007-06-18, 01:45:00,VALID,914.474,VALID,0,VALID,100,VALID,0,VALID,19.1248,VALID,106,VALID,0.657393,
2007-06-18, 01:46:00,VALID,914.46,VALID,0.2,VALID,100,VALID,0,VALID,19.141,VALID,148,VALID,0.865854,
2007-06-18, 01:47:00,VALID,914.426,VALID,0,VALID,100,VALID,0,VALID,19.1378,VALID,172,VALID,1.34315,
2007-06-18, 01:48:00,VALID,914.419,VALID,0,VALID,100,VALID,-0.0339617,VALID,19.164,VALID,51,VALID,1.09413,
2007-06-18, 01:49:00,VALID,914.437,VALID,0,VALID,100,VALID,-0.0169808,VALID,19.1705,VALID,14,VALID,0.754573,
2007-06-18, 01:50:00,VALID,914.422,VALID,0,VALID,100,VALID,-0.0169808,VALID,19.1702,VALID,26,VALID,1.00725,
2007-06-18, 01:51:00,VALID,914.467,VALID,0,VALID,100,VALID,0,VALID,19.17,VALID,359,VALID,0.333394,
2007-06-18, 01:52:00,VALID,914.454,VALID,0,VALID,100,VALID,0,VALID,19.1835,VALID,128,VALID,0.635742,
2007-06-18, 01:53:00,VALID,914.438,VALID,0,VALID,100,VALID,0,VALID,19.1702,VALID,190,VALID,1.03011,
2007-06-18, 01:54:00,VALID,914.449,VALID,0,VALID,100,VALID,-0.0169808,VALID,19.1762,VALID,7,VALID,1.22805,
2007-06-18, 01:55:00,VALID,914.443,VALID,0,VALID,100,VALID,-0.0169808,VALID,19.1865,VALID,36,VALID,0.517485,
2007-06-18, 01:56:00,VALID,914.457,VALID,0,VALID,100,VALID,-0.0169808,VALID,19.1964,VALID,331,VALID,0.539844,
2007-06-18, 01:57:00,VALID,914.442,VALID,0,VALID,100,VALID,-0.0169808,VALID,19.2157,VALID,42,VALID,1.15489,
2007-06-18, 01:58:00,VALID,914.473,VALID,0,VALID,100,VALID,0.0169808,VALID,19.2351,VALID,21,VALID,0.492746,
2007-06-18, 01:59:00,VALID,914.488,VALID,0,VALID,100,VALID,-0.0509425,VALID,19.2458,VALID,35,VALID,0.968936,
2007-06-18, 02:00:00,VALID,914.462,VALID,0,VALID,100,VALID,-0.101885,VALID,19.256,VALID,38,VALID,1.60309,
2007-06-18, 02:01:00,VALID,914.425,VALID,0,VALID,100,VALID,-0.101885,VALID,19.259,VALID,42,VALID,1.41024,
2007-06-18, 02:02:00,VALID,914.444,VALID,0,VALID,100,VALID,-0.118866,VALID,19.2523,VALID,27,VALID,2.02668,
2007-06-18, 02:03:00,VALID,914.419,VALID,0,VALID,100,VALID,-0.101885,VALID,19.2461,VALID,27,VALID,1.92736,
2007-06-18, 02:04:00,VALID,914.411,VALID,0,VALID,100,VALID,-0.101885,VALID,19.2398,VALID,292,VALID,2.00089,
2007-06-18, 02:05:00,VALID,914.396,VALID,0,VALID,100,VALID,-0.0849042,VALID,19.2298,VALID,332,VALID,1.26367,
2007-06-18, 02:06:00,VALID,914.362,VALID,0,VALID,100,VALID,-0.101885,VALID,19.2231,VALID,35,VALID,2.66043,
2007-06-18, 02:07:00,VALID,914.325,VALID,0,VALID,100,VALID,-0.101885,VALID,19.2204,VALID,39,VALID,2.16513,
2007-06-18, 02:08:00,VALID,914.28,VALID,0,VALID,100,VALID,-0.118866,VALID,19.2236,VALID,38,VALID,2.04978,
2007-06-18, 02:09:00,VALID,914.247,VALID,0,VALID,100,VALID,-0.118866,VALID,19.2174,VALID,43,VALID,1.48846,
2007-06-18, 02:10:00,VALID,914.218,VALID,0,VALID,100,VALID,-0.101885,VALID,19.1944,VALID,15,VALID,1.51441,
2007-06-18, 02:11:00,VALID,914.247,VALID,0,VALID,100,VALID,-0.0849042,VALID,19.165,VALID,33,VALID,1.54497,
2007-06-18, 02:12:00,VALID,914.216,VALID,0,VALID,100,VALID,-0.0849042,VALID,19.158,VALID,36,VALID,1.11398,
2007-06-18, 02:13:00,VALID,914.21,VALID,0,VALID,100,VALID,-0.101885,VALID,19.1348,VALID,330,VALID,0.427782,
2007-06-18, 02:14:00,VALID,914.17,VALID,0,VALID,100,VALID,-0.118866,VALID,19.1395,VALID,18,VALID,1.38565,
2007-06-18, 02:15:00,VALID,914.146,VALID,0,VALID,100,VALID,-0.0849042,VALID,19.126,VALID,350,VALID,0.622852,
2007-06-18, 02:16:00,VALID,914.136,VALID,0,VALID,100,VALID,-0.0849042,VALID,19.1158,VALID,258,VALID,0.476749,
2007-06-18, 02:17:00,VALID,914.129,VALID,0,VALID,100,VALID,-0.0679233,VALID,19.1133,VALID,38,VALID,1.5181,
2007-06-18, 02:18:00,VALID,914.128,VALID,0,VALID,100,VALID,-0.0509425,VALID,19.0968,VALID,7,VALID,1.3923,
2007-06-18, 02:19:00,VALID,914.101,VALID,0,VALID,100,VALID,-0.0849042,VALID,19.0806,VALID,34,VALID,2.16172,
2007-06-18, 02:20:00,VALID,914.098,VALID,0,VALID,100,VALID,-0.0339617,VALID,19.0706,VALID,43,VALID,0.575462,
2007-06-18, 02:21:00,VALID,914.076,VALID,0,VALID,100,VALID,-0.0849042,VALID,19.0547,VALID,64,VALID,1.36174,
2007-06-18, 02:22:00,VALID,914.055,VALID,0,VALID,100,VALID,-0.0849042,VALID,19.0646,VALID,32,VALID,1.78832,
2007-06-18, 02:23:00,VALID,914.025,VALID,0,VALID,100,VALID,-0.0849042,VALID,19.0611,VALID,1,VALID,1.5067,
2007-06-18, 02:24:00,VALID,914.023,VALID,0,VALID,100,VALID,-0.0679233,VALID,19.0512,VALID,175,VALID,0.950335,
2007-06-18, 02:25:00,VALID,914,VALID,0,VALID,100,VALID,-0.0509425,VALID,19.0414,VALID,43,VALID,1.83558,
2007-06-18, 02:26:00,VALID,914.013,VALID,0,VALID,100,VALID,-0.101885,VALID,19.0422,VALID,27,VALID,1.6686,
2007-06-18, 02:27:00,VALID,913.964,VALID,0,VALID,100,VALID,-0.101885,VALID,19.0514,VALID,35,VALID,1.50651,
2007-06-18, 02:28:00,VALID,913.955,VALID,0,VALID,100,VALID,-0.0679233,VALID,19.0514,VALID,37,VALID,2.35998,
2007-06-18, 02:29:00,VALID,913.931,VALID,0,VALID,100,VALID,-0.0849042,VALID,19.0547,VALID,10,VALID,1.60011,
2007-06-18, 02:30:00,VALID,913.93,VALID,0,VALID,100,VALID,-0.0509425,VALID,19.0574,VALID,24,VALID,0.833984,
2007-06-18, 02:31:00,VALID,913.902,VALID,0,VALID,100,VALID,-0.101885,VALID,19.0544,VALID,37,VALID,2.67933,
2007-06-18, 02:32:00,VALID,913.861,VALID,0,VALID,100,VALID,-0.101885,VALID,19.0614,VALID,39,VALID,2.76926,
2007-06-18, 02:33:00,VALID,913.885,VALID,0,VALID,100,VALID,-0.0339617,VALID,19.0579,VALID,53,VALID,1.26133,
2007-06-18, 02:34:00,VALID,913.867,VALID,0,VALID,100,VALID,-0.0679233,VALID,19.0551,VALID,55,VALID,1.44252,
2007-06-18, 02:35:00,VALID,913.844,VALID,0,VALID,100,VALID,-0.0849042,VALID,19.0477,VALID,36,VALID,1.61354,
2007-06-18, 02:36:00,VALID,913.86,VALID,0,VALID,100,VALID,-0.0849042,VALID,19.0676,VALID,38,VALID,0.546317,
2007-06-18, 02:37:00,VALID,913.844,VALID,0,VALID,100,VALID,-0.0849042,VALID,19.035,VALID,302,VALID,1.40146,
2007-06-18, 02:38:00,VALID,913.862,VALID,0,VALID,100,VALID,-0.0339617,VALID,19.0317,VALID,5,VALID,1.11035,
2007-06-18, 02:39:00,VALID,913.813,VALID,0,VALID,100,VALID,-0.0679233,VALID,19.0322,VALID,30,VALID,1.69646,
2007-06-18, 02:40:00,VALID,913.812,VALID,0,VALID,100,VALID,-0.0339617,VALID,19.0354,VALID,56,VALID,0.959339,
2007-06-18, 02:41:00,VALID,913.828,VALID,0,VALID,100,VALID,-0.0509425,VALID,19.0322,VALID,240,VALID,0.816034,
2007-06-18, 02:42:00,VALID,913.814,VALID,0,VALID,100,VALID,-0.101885,VALID,19.0122,VALID,252,VALID,0.260476,
2007-06-18, 02:43:00,VALID,913.791,VALID,0,VALID,100,VALID,-0.0679233,VALID,19.0157,VALID,339,VALID,0.965774,
2007-06-18, 02:44:00,VALID,913.803,VALID,0,VALID,100,VALID,-0.101885,VALID,19.032,VALID,46,VALID,0.813702,
2007-06-18, 02:45:00,VALID,913.796,VALID,0,VALID,100,VALID,-0.0679233,VALID,19.0225,VALID,44,VALID,1.35575,
2007-06-18, 02:46:00,VALID,913.793,VALID,0,VALID,100,VALID,-0.0509425,VALID,19.0419,VALID,33,VALID,0.425305,
2007-06-18, 02:47:00,VALID,913.801,VALID,0,VALID,100,VALID,-0.101885,VALID,19.0419,VALID,36,VALID,1.18787,
2007-06-18, 02:48:00,VALID,913.785,VALID,0,VALID,100,VALID,-0.0849042,VALID,19.0482,VALID,34,VALID,0.338118,
2007-06-18, 02:49:00,VALID,913.759,VALID,0,VALID,100,VALID,-0.0679233,VALID,19.0387,VALID,36,VALID,0.766183,
2007-06-18, 02:50:00,VALID,913.735,VALID,0,VALID,100,VALID,-0.0509425,VALID,19.019,VALID,8,VALID,1.10537,
2007-06-18, 02:51:00,VALID,913.717,VALID,0,VALID,100,VALID,-0.0509425,VALID,19.0252,VALID,18,VALID,0.694957,
2007-06-18, 02:52:00,VALID,913.707,VALID,0,VALID,100,VALID,-0.0509425,VALID,19.035,VALID,296,VALID,0.40968,
2007-06-18, 02:53:00,VALID,913.653,VALID,0,VALID,100,VALID,-0.0679233,VALID,19.0153,VALID,241,VALID,1.03054,
2007-06-18, 02:54:00,VALID,913.639,VALID,0,VALID,100,VALID,-0.0339617,VALID,19.009,VALID,246,VALID,1.0479,
2007-06-18, 02:55:00,VALID,913.616,VALID,0,VALID,100,VALID,-0.0849042,VALID,19.0055,VALID,51,VALID,1.03214,
2007-06-18, 02:56:00,VALID,913.604,VALID,0,VALID,100,VALID,-0.0509425,VALID,19.019,VALID,63,VALID,0.783923,
2007-06-18, 02:57:00,VALID,913.545,VALID,0,VALID,100,VALID,-0.0509425,VALID,19.0023,VALID,49,VALID,1.95064,
2007-06-18, 02:58:00,VALID,913.549,VALID,0,VALID,100,VALID,-0.0679233,VALID,19.0025,VALID,350,VALID,1.14367,
2007-06-18, 02:59:00,VALID,913.532,VALID,0,VALID,100,VALID,-0.0679233,VALID,19.012,VALID,41,VALID,1.27949,
2007-06-18, 03:00:00,VALID,913.554,VALID,0,VALID,100,VALID,-0.0509425,VALID,19.0252,VALID,90,VALID,0.857701,
2007-06-18, 03:01:00,VALID,913.537,VALID,0,VALID,100,VALID,-0.0509425,VALID,19.0255,VALID,146,VALID,0.526105,
2007-06-18, 03:02:00,VALID,913.494,VALID,0,VALID,100,VALID,-0.0679233,VALID,19.0162,VALID,141,VALID,1.14714,
2007-06-18, 03:03:00,VALID,913.507,VALID,0,VALID,100,VALID,-0.0849042,VALID,19.0062,VALID,45,VALID,1.57792,
2007-06-18, 03:04:00,VALID,913.487,VALID,0,VALID,100,VALID,-0.0679233,VALID,19.0125,VALID,332,VALID,1.34687,
2007-06-18, 03:05:00,VALID,913.474,VALID,0,VALID,100,VALID,-0.0679233,VALID,19.009,VALID,33,VALID,1.00195,
2007-06-18, 03:06:00,VALID,913.46,VALID,0,VALID,100,VALID,-0.0509425,VALID,19.019,VALID,40,VALID,0.627604,
2007-06-18, 03:07:00,VALID,913.418,VALID,0,VALID,100,VALID,-0.0509425,VALID,19.015,VALID,43,VALID,0.620384,
2007-06-18, 03:08:00,VALID,913.424,VALID,0,VALID,100,VALID,-0.0679233,VALID,19.0225,VALID,222,VALID,0.926389,
2007-06-18, 03:09:00,VALID,913.39,VALID,0,VALID,100,VALID,-0.0679233,VALID,19.0192,VALID,220,VALID,0.719295,
2007-06-18, 03:10:00,VALID,913.37,VALID,0,VALID,100,VALID,-0.101885,VALID,19.0088,VALID,335,VALID,0.570676,
2007-06-18, 03:11:00,VALID,913.372,VALID,0,VALID,100,VALID,-0.0849042,VALID,19.0357,VALID,315,VALID,0.864826,
2007-06-18, 03:12:00,VALID,913.346,VALID,0,VALID,100,VALID,-0.0849042,VALID,19.0322,VALID,110,VALID,0.894817,
2007-06-18, 03:13:00,VALID,913.33,VALID,0,VALID,100,VALID,-0.0509425,VALID,19.0287,VALID,29,VALID,1.1875,
2007-06-18, 03:14:00,VALID,913.369,VALID,0,VALID,100,VALID,-0.0339617,VALID,19.0452,VALID,37,VALID,0.457485,
2007-06-18, 03:15:00,VALID,913.378,VALID,0,VALID,100,VALID,-0.0169808,VALID,19.0482,VALID,42,VALID,0.221608,
2007-06-18, 03:16:00,VALID,913.351,VALID,0,VALID,100,VALID,-0.0169808,VALID,19.0477,VALID,52,VALID,0.227431,
2007-06-18, 03:17:00,VALID,913.369,VALID,0,VALID,100,VALID,-0.0339617,VALID,19.0509,VALID,208,VALID,1.11852,
2007-06-18, 03:18:00,VALID,913.376,VALID,0,VALID,100,VALID,-0.0679233,VALID,19.0342,VALID,241,VALID,0.917411,
2007-06-18, 03:19:00,VALID,913.369,VALID,0,VALID,100,VALID,-0.0339617,VALID,19.0375,VALID,257,VALID,0.447461,
2007-06-18, 03:20:00,VALID,913.362,VALID,0,VALID,100,VALID,-0.0679233,VALID,19.0482,VALID,263,VALID,0.493676,
2007-06-18, 03:21:00,VALID,913.359,VALID,0,VALID,100,VALID,-0.0339617,VALID,19.0509,VALID,323,VALID,0.271913,
2007-06-18, 03:22:00,VALID,913.368,VALID,0,VALID,100,VALID,-0.0679233,VALID,19.0642,VALID,27,VALID,0.524219,
2007-06-18, 03:23:00,VALID,913.352,VALID,0,VALID,100,VALID,-0.0509425,VALID,19.0704,VALID,59,VALID,0.70484,
2007-06-18, 03:24:00,VALID,913.337,VALID,0,VALID,100,VALID,-0.0339617,VALID,19.0804,VALID,96,VALID,0.895508,
2007-06-18, 03:25:00,VALID,913.325,VALID,0,VALID,100,VALID,-0.0509425,VALID,19.0834,VALID,101,VALID,0.708212,
2007-06-18, 03:26:00,VALID,913.333,VALID,0,VALID,100,VALID,-0.0849042,VALID,19.0973,VALID,22,VALID,0.361683,
2007-06-18, 03:27:00,VALID,913.316,VALID,0,VALID,100,VALID,-0.0509425,VALID,19.0901,VALID,349,VALID,0.363477,
2007-06-18, 03:28:00,VALID,913.303,VALID,0,VALID,100,VALID,-0.0509425,VALID,19.0764,VALID,10,VALID,0.576215,
2007-06-18, 03:29:00,VALID,913.327,VALID,0,VALID,100,VALID,-0.0509425,VALID,19.0834,VALID,92,VALID,0.455487,
2007-06-18, 03:30:00,VALID,913.324,VALID,0,VALID,100,VALID,-0.0849042,VALID,19.0899,VALID,90,VALID,0.0381098,
2007-06-18, 03:31:00,VALID,913.272,VALID,0,VALID,100,VALID,-0.101885,VALID,19.0903,VALID,146,VALID,1.05033,
2007-06-18, 03:32:00,VALID,913.306,VALID,0,VALID,100,VALID,-0.0849042,VALID,19.1128,VALID,315,VALID,0.460938,
2007-06-18, 03:33:00,VALID,913.316,VALID,0,VALID,100,VALID,-0.0679233,VALID,19.1161,VALID,334,VALID,0.377604,
2007-06-18, 03:34:00,VALID,913.303,VALID,0,VALID,100,VALID,-0.0509425,VALID,19.1225,VALID,13,VALID,0.395461,
2007-06-18, 03:35:00,VALID,913.304,VALID,0,VALID,100,VALID,-0.0339617,VALID,19.1223,VALID,25,VALID,1.09863,
2007-06-18, 03:36:00,VALID,913.326,VALID,0,VALID,100,VALID,-0.0679233,VALID,19.1353,VALID,300,VALID,0.553711,
2007-06-18, 03:37:00,VALID,913.317,VALID,0,VALID,100,VALID,-0.101885,VALID,19.126,VALID,193,VALID,0.230469,
2007-06-18, 03:38:00,VALID,913.339,VALID,0,VALID,100,VALID,-0.0509425,VALID,19.1263,VALID,111,VALID,0.276042,
2007-06-18, 03:39:00,VALID,913.337,VALID,0,VALID,100,VALID,-0.0509425,VALID,19.1383,VALID,35,VALID,1.62559,